GFSFLT1_850_rhum_096.txt.gz
RH
19 16 14 19 29 33 45 57 53 57 62 77 78 93 90 86 90 95 100 96 84 87 82 80 94 91 96 92 96 92 81 80
21 19 17 16 30 33 42 56 54 60 61 66 76 85 90 87 84 87 92 96 99 94 90 90 90 89 95 82 86 92 87 82
20 20 17 15 22 30 40 54 54 58 60 63 70 73 77 85 85 83 86 99 88 100 100 98 97 93 100 81 82 96 87 85
21 20 18 17 19 25 36 48 54 59 62 69 74 80 84 92 90 87 88 89 100 96 99 99 98 99 99 85 80 79 86 86
21 20 22 18 20 27 41 47 54 60 64 68 71 67 66 71 79 82 94 89 86 98 100 99 100 98 96 98 78 74 82 80
19 20 19 20 37 31 44 46 54 59 63 68 68 73 72 74 86 98 99 96 91 94 96 100 99 99 99 100 78 64 66 76
19 20 24 24 39 56 52 47 54 58 65 68 68 68 66 78 90 92 99 99 99 97 99 96 99 99 99 99 83 66 54 74
19 20 19 26 31 47 58 51 56 57 64 67 68 60 69 73 86 91 98 96 100 95 97 96 100 98 99 95 95 64 73 73
24 21 18 19 30 45 58 54 55 59 62 66 69 61 70 74 83 86 99 98 99 100 93 97 97 99 99 100 97 75 87 82
33 23 22 22 32 41 54 55 53 60 60 66 69 58 70 73 85 91 93 100 98 99 95 90 99 98 100 100 98 91 79 87
50 25 27 35 45 62 75 60 54 58 59 67 68 57 68 76 86 86 89 88 99 100 98 98 97 100 97 98 96 82 94 94
64 51 56 62 70 95 91 68 62 61 64 66 68 62 68 81 88 88 87 89 88 97 100 98 95 93 88 87 91 90 96 91
84 84 84 94 95 99 99 84 70 71 72 70 65 62 65 80 89 90 91 89 90 92 96 100 100 99 99 95 90 93 96 100
100 98 95 94 100 100 99 92 80 80 82 77 74 71 65 70 78 86 90 93 95 96 95 98 99 100 100 90 91 96 95 94
100 100 100 100 99 93 90 87 86 86 87 90 84 83 81 74 74 76 80 91 95 97 98 96 96 97 99 100 98 94 86 89
100 100 100 100 100 100 100 99 95 93 98 97 92 89 89 84 85 84 83 80 81 87 93 94 95 95 96 100 99 97 92 80
100 100 100 100 98 100 100 100 97 91 100 100 100 100 98 94 91 90 92 93 91 88 86 84 89 92 93 93 91 87 83 76
99 100 100 100 98 100 100 81 93 94 99 99 100 100 100 100 100 99 98 97 96 95 95 96 94 90 87 87 94 100 99 92
95 96 92 94 99 100 100 98 98 99 99 99 99 100 100 100 100 100 100 100 100 100 99 98 98 98 99 100 100 100 100 95

GFSFLT1_850_rhum_102.txt.gz
RH
18 19 22 27 43 57 71 54 48 48 51 69 89 48 62 79 76 89 83 90 89 87 92 83 82 100 100 100 99 100 91 98
18 19 24 26 34 55 67 70 62 51 50 67 60 49 61 83 75 75 84 85 89 91 76 78 95 100 100 100 100 99 95 96
20 20 21 26 29 31 53 53 65 43 50 60 60 52 62 82 80 78 84 84 88 96 78 74 77 100 100 98 100 100 100 100
21 21 21 23 31 26 30 44 82 67 62 71 75 64 64 92 87 81 82 85 89 98 93 81 77 94 98 89 83 87 92 90
22 21 22 22 29 33 42 59 78 93 88 67 55 50 57 82 86 65 98 82 84 97 99 99 86 94 96 99 96 97 86 75
33 27 24 24 25 42 51 64 76 93 92 66 58 65 84 96 92 65 88 91 88 99 94 94 100 98 93 100 96 100 87 74
48 38 31 27 25 39 66 68 78 92 84 71 62 60 77 95 76 95 99 99 99 98 93 99 98 94 100 100 97 90 100 95
53 47 37 30 30 58 73 77 80 86 63 69 63 57 67 86 90 91 94 99 99 98 97 94 93 99 100 100 100 100 95 94
66 53 45 34 46 69 77 78 84 92 69 70 66 58 89 96 78 88 95 99 99 96 95 91 99 97 94 100 100 100 100 100
89 66 51 41 55 74 85 86 91 100 96 77 63 65 90 97 96 83 91 76 98 98 97 97 97 99 95 100 99 99 100 100
91 81 60 44 63 81 97 98 99 99 100 87 69 69 89 96 88 66 75 75 92 95 97 98 100 100 100 94 96 97 99 100
99 99 86 67 72 88 99 98 100 100 100 90 78 78 89 93 93 68 72 75 96 95 97 99 99 99 99 100 99 100 100 100
99 100 100 95 85 98 100 99 99 99 100 95 92 88 90 89 94 76 75 77 89 98 98 98 98 99 100 99 99 98 98 99
97 99 100 100 98 99 98 100 99 100 99 100 93 88 91 95 96 95 78 82 84 93 98 90 85 86 85 82 86 87 86 90
94 98 100 100 100 100 100 100 100 100 100 100 97 85 96 97 96 94 87 87 95 92 95 88 85 85 80 84 83 82 83 85
87 99 100 100 100 100 99 100 100 100 100 100 99 93 94 88 86 86 91 92 93 97 99 99 96 90 88 87 85 86 93 87
94 98 100 100 100 100 100 100 100 100 100 100 100 100 100 100 90 84 90 90 96 99 100 100 100 100 100 95 94 97 92 98
100 100 100 100 100 100 100 100 100 100 100 100 100 100 100 100 97 100 99 97 99 100 99 100 100 100 99 98 100 100 100 99
98 99 99 100 100 100 100 99 100 100 100 100 100 100 100 99 98 100 100 100 100 100 100 100 100 99 99 100 100 100 100 100

GFSFLT1_850_rhum_105.txt.gz
RH
14 12 12 15 18 26 38 64 94 96 95 94 90 90 84 69 89 98 92 86 86 91 95 90 86 92 87 97 96 100 97 94
16 15 14 14 19 30 43 57 87 95 52 77 82 96 62 54 47 66 97 98 97 91 98 86 78 74 78 99 99 100 100 99
16 16 17 17 21 28 43 54 75 92 50 70 78 91 65 66 54 74 75 96 92 95 99 86 70 65 81 99 100 100 100 100
16 17 18 19 20 26 36 51 63 84 90 91 89 97 90 69 71 73 70 86 91 95 95 91 71 66 84 99 100 100 98 99
17 17 18 20 21 22 30 43 54 72 94 83 86 84 96 74 83 65 96 94 92 88 91 94 78 72 83 98 97 100 100 92
35 34 29 21 20 22 26 36 49 62 86 78 83 87 92 92 96 94 89 94 98 98 90 95 90 72 79 97 96 98 100 90
41 39 37 28 24 22 25 38 47 57 82 82 83 93 83 82 87 98 92 88 99 98 89 94 98 97 83 89 98 90 91 95
53 55 46 35 29 25 25 41 47 56 79 83 88 92 83 83 89 89 88 97 99 99 93 92 92 96 94 97 100 100 99 98
62 72 66 45 36 29 27 34 51 54 78 84 88 89 86 86 89 80 79 94 100 98 95 99 96 100 100 99 98 95 100 98
75 85 87 71 44 31 30 49 56 56 81 89 89 92 91 86 89 82 81 88 97 100 96 98 98 99 99 93 100 99 100 100
89 95 88 78 49 36 56 66 61 74 94 96 94 99 94 91 93 88 90 97 100 96 85 91 98 99 98 100 100 99 100 100
93 100 96 89 66 56 70 75 72 94 95 99 100 95 96 96 95 94 98 86 100 98 86 97 97 94 100 100 100 99 100 99
91 100 99 94 97 88 83 92 99 98 98 100 97 97 97 99 96 96 100 98 99 99 88 92 97 96 97 100 98 98 99 100
86 94 98 99 99 100 92 100 100 99 100 98 96 99 98 99 95 96 98 99 100 100 97 99 98 98 95 99 100 99 99 100
92 88 96 99 100 100 100 99 100 99 100 100 100 100 97 100 92 96 96 99 100 100 100 100 90 94 97 96 97 98 99 95
100 99 88 98 100 100 99 100 100 100 100 100 99 100 99 95 93 98 97 96 98 100 97 99 99 99 96 100 99 97 99 100
99 100 89 97 100 100 100 100 100 100 100 100 100 100 99 98 98 99 98 99 99 98 97 99 98 99 100 100 100 100 100 100
100 100 100 98 100 100 100 100 100 100 100 100 100 100 100 100 100 100 100 100 99 98 100 99 100 100 99 95 99 98 99 98
99 100 100 100 99 100 100 100 100 100 100 100 100 100 100 100 100 100 100 100 99 90 99 99 99 97 98 99 100 99 99 100

GFSFLT1_850_rhum_111.txt.gz
RH
14 14 14 14 12 11 15 41 48 48 52 64 77 78 70 73 67 61 48 36 60 76 74 90 92 96 98 100 100 98 94 90
15 14 14 14 14 12 12 35 47 60 66 74 71 80 85 85 72 70 57 46 39 59 73 85 91 97 99 99 99 100 99 100
16 17 15 15 15 13 17 28 40 57 60 60 58 60 92 89 83 75 61 54 43 47 67 84 95 92 93 100 99 100 100 95
14 16 16 16 16 14 13 26 37 53 57 70 80 89 91 94 90 76 64 58 51 54 69 82 97 100 96 91 98 99 99 98
26 27 30 32 26 25 33 24 43 53 52 58 65 62 60 89 93 89 80 69 60 61 65 71 89 89 85 89 79 72 100 100
53 52 50 49 39 40 35 64 54 58 56 46 48 68 64 65 93 95 87 72 74 81 68 72 84 79 81 82 73 73 99 100
49 46 47 48 51 54 47 35 54 54 54 52 32 50 57 66 92 92 85 74 85 87 68 82 80 82 80 80 74 79 98 100
49 43 40 40 40 50 55 55 38 61 51 49 31 50 57 58 84 89 82 79 79 73 64 81 98 82 83 87 77 87 98 99
62 57 55 59 63 66 68 66 55 40 61 52 43 53 70 65 77 85 77 73 73 85 69 85 95 89 82 92 80 91 84 96
72 71 84 87 93 93 87 68 55 49 41 49 53 57 68 71 82 88 84 77 75 74 71 93 99 100 91 93 82 88 89 93
87 86 84 88 95 100 100 88 55 45 38 46 50 52 65 67 79 81 85 86 81 65 72 89 95 97 98 100 99 100 96 100
97 95 86 89 94 100 99 96 79 54 41 50 54 52 62 69 75 79 85 85 81 84 78 90 93 94 92 92 98 99 100 100
99 99 98 92 93 98 100 100 98 95 96 64 58 62 66 71 77 85 88 86 87 87 88 91 92 90 86 88 96 100 100 100
99 98 99 100 97 98 98 99 100 100 91 94 73 72 72 76 82 93 89 83 91 92 91 94 99 94 92 92 97 98 100 99
99 99 100 99 100 98 98 100 100 99 99 92 99 94 80 80 77 97 94 91 96 94 92 98 98 98 99 100 99 96 99 100
100 100 100 100 99 100 98 98 100 100 100 99 99 98 100 92 92 99 98 98 92 96 99 99 99 100 100 98 98 98 99 100
99 100 100 99 100 100 100 96 98 100 100 100 100 100 99 100 97 100 95 97 96 99 96 99 100 100 99 98 98 97 98 97
97 99 99 100 99 100 100 100 96 99 100 100 100 100 100 100 100 100 100 100 100 100 97 96 100 97 100 97 94 96 97 98
97 98 99 100 100 100 100 99 100 97 99 100 97 98 100 100 100 100 100 100 100 100 100 100 99 96 99 100 100 99 100 100

GFSFLT1_850_rhum_117.txt.gz
RH
16 15 15 14 13 13 13 14 18 33 55 58 59 56 60 51 44 44 42 43 44 44 44 60 79 91 99 99 97 97 94 91
17 16 16 15 15 15 14 14 14 20 51 59 65 56 56 66 64 59 54 53 51 48 46 58 80 91 99 95 98 99 99 94
20 20 20 19 20 19 18 18 16 16 20 28 56 56 56 60 69 78 72 61 57 53 52 51 70 94 98 98 94 90 88 93
27 30 30 32 30 30 27 20 21 20 21 29 62 74 75 58 58 64 73 69 69 60 57 51 59 79 100 97 99 87 87 89
50 46 60 61 63 56 43 30 35 44 59 77 78 52 56 48 45 49 57 69 68 69 64 58 58 71 88 96 100 99 86 86
77 69 73 67 69 66 73 79 67 74 98 91 70 65 62 61 53 52 56 64 67 75 72 66 54 64 82 92 91 93 96 91
87 85 80 70 64 60 64 76 90 99 99 99 98 71 70 53 54 58 57 57 66 79 82 76 61 58 67 82 94 97 96 96
99 96 87 84 75 59 53 56 66 83 98 100 100 91 66 63 53 61 82 55 57 64 78 86 78 67 71 83 100 99 100 99
100 100 99 94 91 83 72 56 51 59 70 87 98 100 92 72 54 48 66 49 48 57 73 92 88 87 85 99 99 100 100 99
100 100 100 99 95 95 92 96 99 98 71 66 63 75 84 72 70 64 57 53 50 56 70 87 93 99 99 99 98 98 100 99
100 100 100 100 100 98 96 95 99 98 99 89 64 58 56 68 67 59 59 62 57 59 65 87 93 98 100 99 98 97 99 100
100 100 100 100 99 96 95 96 98 99 99 98 90 62 54 47 58 62 56 63 61 61 60 72 81 90 99 99 98 93 95 99
100 100 100 100 100 100 100 97 98 99 100 100 98 99 89 92 64 58 62 60 64 64 64 68 80 88 94 99 96 90 92 99
99 99 100 99 99 98 99 98 99 100 100 100 100 100 100 100 100 79 67 67 66 69 70 76 83 87 92 98 89 88 91 93
100 99 99 99 100 98 99 100 100 100 100 100 100 99 99 100 100 100 95 78 75 69 72 74 99 88 81 89 84 88 94 92
99 100 100 100 98 98 99 100 100 100 100 99 99 100 99 100 100 100 100 99 82 76 77 81 97 91 88 90 90 88 90 95
100 100 100 99 100 100 100 100 100 100 97 99 100 100 99 100 99 100 100 100 100 98 89 97 100 93 92 95 90 90 90 97
100 100 100 100 99 100 99 99 97 96 99 100 95 98 99 99 99 100 100 100 100 99 100 100 100 100 95 94 88 94 96 98
91 98 99 99 98 94 95 93 95 94 94 98 99 99 100 100 92 95 99 98 100 100 100 100 100 100 97 94 95 100 94 95

GFSFLT1_850_rhum_120.txt.gz
RH
16 18 18 17 48 47 43 42 43 48 54 55 51 48 40 33 30 30 32 34 39 39 41 47 60 79 82 83 89 93 95 97
21 20 20 18 21 43 50 53 46 50 56 60 58 54 50 49 42 41 40 39 48 47 48 52 55 69 80 83 95 96 96 98
28 25 22 19 18 17 26 52 50 40 42 36 51 53 57 58 54 55 53 51 56 52 52 54 49 64 84 90 93 91 88 81
56 56 43 28 24 22 19 18 17 25 33 44 74 78 77 72 65 63 67 61 57 55 53 59 59 57 75 97 96 94 89 86
80 81 80 53 47 44 36 25 19 22 40 47 59 65 66 52 58 63 68 68 51 57 57 62 59 61 61 91 99 96 97 91
97 90 94 59 66 78 64 57 45 42 73 95 56 63 64 57 60 57 58 56 64 76 67 71 73 75 71 65 97 98 98 98
100 100 99 93 90 92 86 99 100 99 89 94 98 99 88 76 72 66 65 59 56 60 62 66 70 74 73 72 91 91 98 98
99 99 100 100 98 90 79 88 98 100 99 99 99 100 100 78 74 72 68 64 58 57 63 60 65 75 79 69 82 89 90 90
100 100 99 100 100 99 89 87 89 86 96 98 100 99 100 97 84 80 73 64 54 45 64 67 59 67 81 78 73 90 92 97
100 100 100 100 100 100 100 98 96 90 88 85 84 95 98 98 98 99 73 67 58 44 46 57 56 62 79 89 84 90 97 96
100 100 100 100 100 100 100 100 99 99 96 96 92 81 78 77 89 90 81 75 64 47 62 59 61 71 77 94 94 95 98 98
99 100 100 100 100 100 100 99 100 100 100 98 98 98 95 76 68 64 83 76 65 61 61 62 63 68 73 92 99 97 97 98
98 100 99 100 100 100 100 99 99 100 100 100 100 98 98 99 100 99 100 100 88 76 71 72 68 66 67 83 100 98 97 98
98 99 100 100 100 100 100 100 99 99 99 100 100 99 99 100 100 99 98 100 99 82 72 65 66 66 67 78 100 99 98 97
99 99 100 99 100 98 98 98 98 97 99 99 99 99 100 100 99 98 100 99 100 100 84 65 66 69 70 81 100 99 100 93
98 100 100 100 98 98 96 97 97 98 98 98 99 100 99 100 100 99 99 100 100 98 100 100 97 74 75 83 100 100 100 90
100 99 100 98 100 99 97 95 96 97 95 99 100 100 99 99 100 99 99 100 100 100 100 100 100 100 100 99 97 95 88 82
100 100 100 98 99 100 95 95 96 94 99 99 96 98 100 99 97 95 96 98 99 100 100 100 100 100 100 100 98 98 92 84
98 100 100 100 100 100 100 88 88 91 94 99 99 99 98 97 98 99 98 98 97 98 96 99 100 100 100 100 100 100 97 98

GFSFLT1_850_rhum_126.txt.gz
RH
18 16 12 20 32 28 24 42 85 93 75 62 90 86 35 32 29 29 30 35 41 38 36 41 47 58 59 64 72 79 86 98
18 18 21 61 58 57 32 40 72 93 93 86 82 84 55 46 42 33 34 34 39 40 39 40 39 47 50 53 65 78 91 96
53 56 69 79 76 55 49 55 57 85 90 81 68 72 76 73 80 57 35 34 35 41 43 47 42 48 56 61 66 81 91 94
81 74 75 87 90 84 83 83 75 81 94 89 80 80 86 90 90 73 54 50 48 42 44 62 62 50 48 52 57 63 78 88
99 98 96 100 100 94 95 94 99 98 99 98 94 88 93 91 92 87 91 62 60 65 53 86 92 50 54 51 58 64 82 91
100 100 100 99 100 100 100 98 100 100 100 96 99 96 93 93 97 90 73 62 70 87 85 68 66 52 55 57 63 73 89 95
99 100 100 100 100 100 100 98 100 91 100 95 66 94 100 100 96 98 99 92 78 83 98 79 64 59 58 65 64 69 75 86
98 99 99 100 100 100 100 100 100 100 99 99 98 100 99 99 98 98 98 98 98 79 99 100 84 69 63 64 66 48 40 67
98 98 100 99 100 100 100 100 100 100 100 100 99 100 100 99 99 98 100 99 98 100 100 99 94 65 68 68 64 51 37 52
96 98 100 100 100 100 100 100 100 99 100 100 100 99 99 100 99 100 100 97 97 98 99 100 96 75 65 68 63 56 58 61
96 98 98 100 100 100 100 100 99 97 98 98 96 97 97 94 87 95 80 70 80 99 98 99 100 99 87 70 63 81 66 69
97 97 97 99 100 100 100 100 100 100 99 96 99 92 93 90 70 59 56 82 52 90 98 98 98 99 99 99 86 76 78 66
97 96 97 97 100 100 100 100 100 100 100 100 100 92 96 95 86 85 79 84 99 100 100 98 98 99 99 100 98 82 77 74
96 95 96 97 98 99 100 100 100 100 99 97 99 98 99 98 98 98 98 100 100 100 100 99 100 100 100 100 100 98 81 76
98 97 97 97 97 97 97 99 97 93 90 94 99 97 99 100 100 100 100 100 100 100 100 100 100 100 100 100 99 100 100 100
100 100 100 97 96 97 97 99 100 99 99 100 100 100 99 95 93 96 98 98 99 100 100 100 100 100 100 99 100 100 100 97
100 100 100 99 100 100 98 99 98 100 98 100 100 100 96 96 96 96 93 92 91 94 98 100 97 98 100 99 99 96 100 100
100 100 100 100 100 100 100 100 99 94 92 91 92 94 94 94 90 88 88 90 91 91 92 91 94 95 93 93 99 100 100 100
100 99 97 100 100 100 100 100 98 80 78 83 89 91 89 89 86 86 88 87 85 85 88 89 89 94 98 99 100 100 98 100